This demonstration page uses our WeatherBlox Daily Observations layout. Learn more.

Left ArrowRight Arrow

Hourly Observations for September 17, 2020

Temp ( °F °C ) Dew Point ( °F °C ) Humidity (%) Winds ( mph kmh ) Pressure ( in mb ) Visibility ( mi km ) Precip ( " mm )
12:15 am 00:15 Clear 53 11.6 49 9.6 88 88 NNE 7 11 30.24 1024 10 16 N/A
12:35 am 00:35 Clear 52 11.1 49 9.3 89 89 NNE 5 7 30.23 1024 10 16 N/A
12:55 am 00:55 Clear 51 10.8 48 9.1 89 89 NNE 3 6 30.24 1024 10 16 N/A
1:15 am 01:15 Clear 52 11 49 9.4 90 90 N 3 6 30.24 1024 10 16 N/A
1:35 am 01:35 Clear 50 10.2 48 8.7 91 91 NE 5 7 30.23 1024 10 16 N/A
1:55 am 01:55 Clear 50 10.1 48 8.9 92 92 N N/A 30.24 1024 10 16 N/A
2:15 am 02:15 Clear 49 9.7 46 8 89 89 N N/A 30.25 1024 10 16 N/A
2:35 am 02:35 Clear 50 10 47 8.5 91 91 N N/A 30.25 1024 10 16 N/A
2:55 am 02:55 Clear 49 9.2 47 8.1 93 93 N N/A 30.25 1024 10 16 N/A
3:15 am 03:15 Clear 49 9.2 47 8.2 94 94 N N/A 30.25 1024 10 16 N/A
3:35 am 03:35 Clear 47 8.1 45 7.2 94 94 N N/A 30.25 1024 7 11 N/A
3:55 am 03:55 Clear 46 7.6 44 6.7 94 94 N N/A 30.25 1025 10 16 N/A
4:15 am 04:15 Clear 47 8.3 46 7.5 95 95 N N/A 30.25 1024 10 16 N/A
4:35 am 04:35 Clear 46 7.5 44 6.5 93 93 N N/A 30.25 1024 10 16 N/A
4:55 am 04:55 Clear 45 7.4 44 6.5 94 94 N N/A 30.26 1025 10 16 N/A
5:15 am 05:15 Clear 45 7.2 44 6.5 95 95 NW 3 6 30.26 1025 10 16 N/A
5:35 am 05:35 Clear 45 7.4 44 6.5 94 94 NW 3 6 30.26 1025 10 16 N/A
5:55 am 05:55 Clear 46 7.7 44 6.9 95 95 N N/A 30.26 1025 10 16 N/A
6:15 am 06:15 Clear 45 7.3 44 6.5 95 95 N N/A 30.27 1025 10 16 N/A
6:35 am 06:35 Clear 45 7 43 6.1 94 94 N N/A 30.26 1025 7 11 N/A
6:55 am 06:55 Clear 44 6.7 43 6.1 96 96 N N/A 30.26 1025 7 11 N/A
7:15 am 07:15 Clear 44 6.9 43 6.1 95 95 N N/A 30.28 1025 7 11 N/A
7:35 am 07:35 Sunny 44 6.6 43 5.9 95 95 N N/A 30.28 1026 7 11 N/A
7:55 am 07:55 Sunny 44 6.8 43 6.1 95 95 N N/A 30.30 1026 7 11 N/A
8:15 am 08:15 Sunny 45 7.1 43 6.3 95 95 N N/A 30.30 1026 7 11 N/A
8:35 am 08:35 Sunny 47 8.2 45 7.4 95 95 N N/A 30.29 1026 7 11 N/A
8:55 am 08:55 Sunny 49 9.2 47 8.4 95 95 N N/A 30.28 1025 7 11 N/A
9:15 am 09:15 Sunny 51 10.8 49 9.5 92 92 N N/A 30.27 1025 7 11 N/A
9:35 am 09:35 Hazy 54 12 48 9.1 83 83 N N/A 30.26 1025 5 8 N/A
9:55 am 09:55 Sunny 55 13 50 9.8 81 81 SE 5 7 30.25 1024 10 16 N/A
10:15 am 10:15 Sunny 57 14 51 10.5 80 80 SSE 5 7 30.25 1024 10 16 N/A
10:35 am 10:35 Sunny 59 15 52 10.9 77 77 SSE 8 13 30.23 1024 10 16 N/A
10:55 am 10:55 Sunny 61 15.9 52 11.3 74 74 SSE 6 9 30.22 1023 10 16 N/A
11:15 am 11:15 Sunny 63 17.1 53 11.5 70 70 S 8 13 30.21 1023 10 16 N/A
11:35 am 11:35 Sunny 64 18 53 11.4 66 66 S 6 9 30.20 1023 10 16 N/A
11:55 am 11:55 Sunny 65 18.6 53 11.4 63 63 S 8 13 30.19 1022 10 16 N/A
12:15 pm 12:15 Sunny 67 19.3 53 11.4 60 60 S 9 15 30.17 1022 10 16 N/A
12:35 pm 12:35 Sunny 69 20.4 53 11.5 57 57 S 10 17 30.16 1021 10 16 N/A
12:55 pm 12:55 Sunny 69 20.7 52 11.3 55 55 S 10 17 30.15 1021 10 16 N/A
1:15 pm 13:15 Sunny 70 21.1 52 11.3 54 54 SSE 10 17 30.14 1021 7 11 N/A
1:35 pm 13:35 Sunny 71 21.4 53 11.5 53 53 S 7 11 30.13 1020 10 16 N/A
1:55 pm 13:55 Sunny 71 21.5 52 11.2 52 52 S 7 11 30.11 1020 10 16 N/A
2:15 pm 14:15 Sunny 72 22.2 52 11.3 50 50 SSW 12 19 30.11 1020 7 11 N/A
2:35 pm 14:35 Sunny 72 22.4 52 11 49 49 S 8 13 30.09 1019 7 11 N/A
2:55 pm 14:55 Sunny 73 22.8 52 11.2 48 48 S 9 15 30.08 1019 7 11 N/A
3:15 pm 15:15 Sunny 74 23.1 52 11 47 47 S 6 9 30.07 1018 7 11 N/A
3:35 pm 15:35 Sunny 74 23.6 52 11 45 45 S 8 13 30.05 1018 7 11 N/A
3:55 pm 15:55 Hazy 75 23.7 51 10.6 44 44 S 9 15 30.05 1017 5 8 N/A
4:15 pm 16:15 Hazy 75 23.8 51 10.6 43 43 SSE 9 15 30.04 1017 5 8 N/A
4:35 pm 16:35 Hazy 75 23.9 52 10.9 44 44 S 10 17 30.02 1017 5 8 N/A
4:55 pm 16:55 Hazy 75 23.9 51 10.5 43 43 S 12 19 30.01 1016 5 8 N/A
5:15 pm 17:15 Hazy 75 23.8 51 10.6 43 43 SSW 13 20 30.02 1016 5 8 N/A
5:35 pm 17:35 Hazy 74 23.6 51 10.6 44 44 S 7 11 30.02 1017 5 8 N/A
5:55 pm 17:55 Hazy 74 23.6 51 10.7 44 44 S 9 15 30.02 1017 5 8 N/A
6:15 pm 18:15 Hazy 74 23.4 52 11.2 46 46 S 8 13 30.02 1017 5 8 N/A
6:35 pm 18:35 Hazy 73 22.7 53 11.6 50 50 S 7 11 30.01 1016 5 8 N/A
6:55 pm 18:55 Hazy 71 21.6 54 12 55 55 SSE 3 6 30.03 1017 5 8 N/A
7:15 pm 19:15 Hazy 69 20.4 54 12.2 59 59 SSE 5 7 30.04 1017 5 8 N/A
7:35 pm 19:35 Hazy 66 18.8 54 12 65 65 SE 5 7 30.06 1018 5 8 N/A
7:55 pm 19:55 Hazy 62 16.8 53 11.6 72 72 SE 6 9 30.08 1019 5 8 N/A
8:15 pm 20:15 Hazy 59 15 53 11.4 79 79 SE 7 11 30.10 1019 5 8 N/A
8:35 pm 20:35 Clear 60 15.7 54 12 79 79 ESE 7 11 30.10 1019 7 11 N/A
8:55 pm 20:55 Clear 59 14.9 53 11.7 81 81 ESE 7 11 30.12 1020 7 11 N/A
9:15 pm 21:15 Clear 57 13.8 53 11.4 86 86 ESE 6 9 30.14 1021 7 11 N/A
9:35 pm 21:35 Clear 58 14.3 53 11.9 86 86 ESE 7 11 30.15 1021 7 11 N/A
9:55 pm 21:55 Clear 56 13.5 53 11.6 88 88 ESE 7 11 30.16 1021 7 11 N/A
10:15 pm 22:15 Clear 57 13.7 53 11.7 88 88 ESE 7 11 30.16 1021 7 11 N/A
10:35 pm 22:35 Clear 58 14.3 53 11.9 86 86 SE 6 9 30.17 1022 7 11 N/A
10:55 pm 22:55 Clear 58 14.2 53 11.9 86 86 SE 5 7 30.16 1021 7 11 N/A
11:15 pm 23:15 Clear 55 12.5 52 10.9 90 90 SE 5 7 30.18 1022 7 11 N/A
11:35 pm 23:35 Clear 55 12.7 51 10.7 88 88 SE 6 9 30.18 1022 7 11 N/A
11:55 pm 23:55 Clear 56 13.2 52 11.3 88 88 SE 5 7 30.18 1022 7 11 N/A

Powered by AerisWeather